Location: Newark
(45.2500°N, 7.5833°E)
Time: 02:02:50
(UTC+00:00)

A-11 Canister half - Pass Details

Date: 02 February 2020
Orbit: 1524 x 1684 km, 47.3° (Epoch: 25 February)

Event Time Altitude Azimuth Distance (km) Brightness Sun altitude
Rises 21:39:19 0° 293° (WNW) 4,729 12.2 -51.5°
Reaches altitude 10° 21:42:37 10° 286° (WNW) 3,763 11.4 -52.0°
Enters shadow 21:46:18 24° 270° (W) 2,841 10.5 -52.5°
Maximum altitude 21:51:05 37° 223° (SW) 2,295 - -53.1°
Drops below altitude 10° 21:59:47 10° 161° (SSE) 3,864 - -54.2°
Sets 22:03:14 0° 153° (SSE) 4,869 - -54.6°
